Regional Weather Roundup
Issued by NWS

Home | Current Version | Previous Version | Text Only | Print | Product List | Glossary Off
Versions: 1 2 3 4 5 6 7 8 9 10 11 12 13 14 15 16 17 18 19 20 21 22 23 24 25 26 27 28 29 30 31 32 33 34 35 36 37 38 39 40 41 42 43 44 45 46 47 48 49 50

000
ASUS43 KLOT 020908
RWRIL

ILLINOIS REGIONAL WEATHER ROUNDUP
NATIONAL WEATHER SERVICE CHICAGO/ROMEOVILLE IL
400 AM CDT SUN AUG 02 2015

NOTE: "FAIR" INDICATES FEW OR NO CLOUDS BELOW 12,000 FEET WITH NO
SIGNIFICANT WEATHER AND/OR OBSTRUCTIONS TO VISIBILITY.

* THESE STATIONS ARE NOT UNDER NWS QUALITY CONTROL. THEY ALSO MAY NOT
  REPORT WEATHER SUCH AS PRECIPITATION OR FOG.

ILZ001-002-007-009-015-016-024-021000-
NORTHWEST ILLINOIS

CITY           SKY/WX    TMP DP  RH WIND       PRES   REMARKS
MOLINE         CLEAR     71  68  90 CALM      29.87F
STERLING*      PTCLDY    70  66  88 W3        29.84F
SAVANNA*       PTCLDY    73  69  87 S5        29.86S
$$

ILZ003-004-008-010-011-017-018-021000-
NORTH CENTRAL ILLINOIS

CITY           SKY/WX    TMP DP  RH WIND       PRES   REMARKS
ROCKFORD       MOCLDY    69  66  90 S7        29.87F
FREEPORT*      PTCLDY    70  68  93 SW10      29.87S
ROCHELLE*      PTCLDY    64  64  98 S7        29.88F
DE KALB*       CLEAR     71  68  90 SW9       29.88F
PERU*          CLEAR     71  67  88 SW9       29.89F
$$

ILZ005-006-012>014-019>023-021000-
NORTHEAST ILLINOIS

CITY           SKY/WX    TMP DP  RH WIND       PRES   REMARKS
CHICAGO-OHARE  PTCLDY    72  67  84 SW10      29.86F
CHICAGO-MIDWAY CLEAR     74  65  73 SW10      29.87F
AURORA         CLEAR     69  64  84 SW7       29.88F
LANSING*       CLEAR     69  64  83 SW3       29.89F
JOLIET*        CLEAR     70  67  90 SW3       29.88F
WAUKEGAN       PTCLDY    72  66  81 VRB5      29.85S
DUPAGE AIRPORT CLEAR     69  65  86 SW10      29.87F
KANKAKEE*      CLEAR     65  64  95 CALM      29.91F
WHEELING       CLEAR     73  65  75 SW7       29.87F
MORRIS*        CLEAR     69  66  90 SW6       29.88F
ROMEOVILLE*    CLEAR     69  64  85 W5        29.88F
NORTHERLY ISL    N/A     75  65  70 SW7         N/A
$$

LMZ740>746-021000-
SOUTHERN LAKE MICHIGAN

STATION/POSITION SKY/WX   TEMP    WIND        PRES    VSBY  WAVE
                          AIR SEA DIR/SP/G                  HT/PER
                          (F)     (DEG/KT/KT) (MB)    (MI)  (FT/S)
HARRISON CRIB              75     260/ 19/ 22   N/A
BURNHAM HARBOR             75     230/  4/ 11   N/A
CALUMET HARBOR             74     210/  5/  6   N/A
BURNS HARBOR               73     230/ 11/ 13 1012.9R
MICHIGAN CITY              72     200/ 12/ 13   N/A
MICHIGAN CITY 6N           73 74  230/ 14/ 17   N/A           2/ 3
ST. JOSEPH                 73 73  250/ 14/ 14   N/A           3/ 4
$$

ILZ025>027-034>036-040-047-049-050-058-095>099-021000-
WEST-CENTRAL ILLINOIS

CITY           SKY/WX    TMP DP  RH WIND       PRES   REMARKS
QUINCY         PTCLDY    68  65  90 S8        29.93F
GALESBURG*     CLEAR     65  65  97 CALM      29.91S
MACOMB*        CLEAR     65  64  96 S3        29.93F
JACKSONVILLE*  CLEAR     72  69  89 S6        29.93F
PITTSFIELD*    PTCLDY    70  69  95 S3        29.95S
$$

ILZ028>032-037-038-041>044-048-051>054-059>061-021000-
CENTRAL ILLINOIS

CITY           SKY/WX    TMP DP  RH WIND       PRES   REMARKS
PONTIAC        CLEAR     69  66  92 SW3       29.92F
BLOOMINGTON    CLEAR     70  64  81 SW10      29.94F
DECATUR        CLEAR     67  60  78 SW5       29.95F
PEORIA         CLEAR     70  65  84 S5        29.91F
LACON*         PTCLDY    73  67  84 SW7       29.89F
LINCOLN*       CLEAR     69  63  83 CALM      29.92F
SPRINGFIELD    CLEAR     73  66  78 SW8       29.93F
TAYLORVILLE    CLEAR     66  63  88 S6        29.95F
$$

ILZ033-039-045-046-055>057-062-063-021000-
EAST-CENTRAL ILLINOIS

CITY           SKY/WX    TMP DP  RH WIND       PRES   REMARKS
CHAMPAIGN      CLEAR     64  61  90 S7        29.95F
DANVILLE*      CLEAR     62  61  96 SW3       29.92F
RANTOUL*       CLEAR     67  62  84 SW7       29.94F
MATTOON        CLEAR     69  60  73 S6        29.95F
PARIS*         CLEAR     63  60  92 SW5       29.97S
$$

ILZ079-100>102-021000-
SOUTHWEST ILLINOIS

CITY           SKY/WX    TMP DP  RH WIND       PRES   REMARKS
ALTON          PTCLDY    69  66  92 CALM      29.96S
BELLEVILLE     MOCLDY    71  71  99 SW1       29.94F
CAHOKIA*       PTCLDY    72  68  87 CALM      29.95F
SPARTA*        CLEAR     73  67  82 CALM      29.97F
$$

ILZ064>066-069>071-074>076-080>082-084>086-088>090-092>094-021000-
SOUTH-CENTRAL ILLINOIS

CITY           SKY/WX    TMP DP  RH WIND       PRES   REMARKS
CARBONDALE     PTCLDY    69  66  90 CALM      29.96F
CAIRO*         CLEAR     69  69  98 N3        29.96S
EFFINGHAM*     CLEAR     65  61  87 CALM      29.98S
MARION         PTCLDY    72  64  78 CALM      29.97F
MT. VERNON     PTCLDY    64  61  88 CALM      29.98S
CENTRALIA*     CLEAR     66  63  89 S3        29.96F
SALEM*         CLEAR     67  64  89 S3        29.97F
METROPOLIS*    CLEAR     67  67 100 CALM      29.97F
$$

ILZ067-068-072-073-078-083-087-091-021000-
SOUTHEAST ILLINOIS

CITY           SKY/WX    TMP DP  RH WIND       PRES   REMARKS
LAWRENCEVILLE  PTCLDY    65  63  93 CALM      29.97F
FLORA*         PTCLDY    64  61  90 CALM      29.97F
FAIRFIELD*     PTCLDY    66  64  94 CALM      29.96F
HARRISBURG*    PTCLDY    64  64 100 CALM      29.98F
ROBINSON*      PTCLDY    62  61  96 CALM      29.97F
CARMI*         CLOUDY    67  63  86 CALM      29.96F
$$

ABBREVIATIONS USED IN REMARKS
   TC - TEMPERATURE IN CELSIUS
  WCI - WIND CHILL INDEX
   HX - HEAT INDEX
  VSB - VISIBILITY
$$



USA.gov is the U.S. government's official web portal to all federal, state and local government web resources and services.